OE8NDR-11 Weather Reports


Display with metric or nautical units.
time (UTC)temp
F
wind
direction
speed
MPH
gust
MPH
rain 1hr
in
rain 24hr
in
rain mn
in
humidity
%
barometer
mb
20260505064812 60 314 1.0 3.0 0.00 0.00 0.00 72 1018.9
20260505064312 60 319 1.0 3.0 0.00 0.00 0.00 72 1019.0
20260505063812 59 324 0.0 3.0 0.00 0.00 0.00 72 1019.0
20260505063312 59 27 0.0 0.0 0.00 0.00 0.00 74 1018.9
20260505062812 59 27 0.0 0.0 0.00 0.00 0.00 75 1018.9
20260505062312 58 343 0.0 0.0 0.00 0.00 0.00 76 1018.8
20260505061812 57 343 0.0 0.0 0.00 0.00 0.00 76 1018.7
20260505061312 57 344 0.0 0.0 0.00 0.00 0.00 77 1018.7
20260505060812 57 343 0.0 0.0 0.00 0.00 0.00 78 1018.8
20260505060312 56 344 0.0 0.0 0.00 0.00 0.00 80 1018.7
20260505055812 54 310 0.0 0.0 0.00 0.00 0.00 81 1018.7
20260505055312 54 309 0.0 0.0 0.00 0.00 0.00 81 1018.7
20260505054812 54 309 0.0 0.0 0.00 0.00 0.00 83 1018.7
20260505054312 53 310 0.0 0.0 0.00 0.00 0.00 83 1018.7
20260505053812 53 310 0.0 0.0 0.00 0.00 0.00 83 1018.8
20260505053312 53 310 0.0 0.0 0.00 0.00 0.00 83 1018.8
20260505052812 53 310 0.0 0.0 0.00 0.00 0.00 85 1018.7
20260505052312 52 310 0.0 0.0 0.00 0.00 0.00 85 1018.7
20260505051812 52 310 0.0 0.0 0.00 0.00 0.00 86 1018.7
20260505051312 51 310 0.0 0.0 0.00 0.00 0.00 87 1018.7
20260505050812 50 310 0.0 1.0 0.00 0.00 0.00 87 1018.7
20260505050312 49 309 0.0 0.0 0.00 0.00 0.00 88 1018.7
20260505041312 47 273 3.0 4.0 0.00 0.00 0.00 86 1018.8
20260505040812 47 277 2.0 3.0 0.00 0.00 0.00 86 1018.6
20260505040312 47 278 2.0 3.0 0.00 0.00 0.00 86 1018.6
20260505035812 47 277 2.0 4.0 0.00 0.00 0.00 85 1018.7
20260505035312 47 304 2.0 3.0 0.00 0.00 0.00 85 1018.6
20260505034812 47 306 2.0 3.0 0.00 0.00 0.00 85 1018.6
20260505034312 47 307 1.0 3.0 0.00 0.00 0.00 85 1018.6
20260505033812 47 65 1.0 2.0 0.00 0.00 0.00 84 1018.5
20260505033312 48 65 0.0 0.0 0.00 0.00 0.00 84 1018.6
20260505032812 48 65 1.0 2.0 0.00 0.00 0.00 84 1018.5
20260505032312 48 65 2.0 2.0 0.00 0.00 0.00 84 1018.5
20260505031812 48 65 2.0 2.0 0.00 0.00 0.00 85 1018.5
20260505031312 48 65 2.0 2.0 0.00 0.00 0.00 84 1018.5
20260505030812 48 65 1.0 2.0 0.00 0.00 0.00 84 1018.5
20260505030312 48 65 0.0 2.0 0.00 0.00 0.00 84 1018.5
20260505025812 48 65 1.0 0.0 0.00 0.00 0.00 83 1018.4
20260505025312 48 65 2.0 2.0 0.00 0.00 0.00 83 1018.4
20260505024812 48 65 2.0 3.0 0.00 0.00 0.00 83 1018.4
20260505024312 48 65 2.0 3.0 0.00 0.00 0.00 83 1018.5
20260505023812 48 65 2.0 3.0 0.00 0.00 0.00 83 1018.4
20260505023312 48 65 2.0 3.0 0.00 0.00 0.00 83 1018.4
20260505022812 48 86 1.0 2.0 0.00 0.00 0.00 83 1018.4
20260505022312 48 86 1.0 2.0 0.00 0.00 0.00 83 1018.4
20260505021812 48 86 0.0 1.0 0.00 0.00 0.00 83 1018.5
20260505021312 48 86 1.0 0.0 0.00 0.00 0.00 83 1018.5
20260505020813 48 86 2.0 2.0 0.00 0.00 0.00 83 1018.5
20260505020313 49 86 2.0 3.0 0.00 0.00 0.00 82 1018.4
20260505015813 49 87 1.0 3.0 0.00 0.00 0.00 82 1018.5
20260505015313 49 157 1.0 1.0 0.00 0.00 0.00 82 1018.5
20260505014812 49 157 2.0 2.0 0.00 0.00 0.00 82 1018.6
20260505014313 49 157 3.0 5.0 0.00 0.00 0.00 83 1018.5
20260505013813 49 159 4.0 6.0 0.00 0.00 0.00 84 1018.5
20260505013313 49 140 3.0 4.0 0.00 0.00 0.00 84 1018.5
20260505012813 49 138 3.0 4.0 0.00 0.00 0.00 85 1018.5
20260505012313 49 138 3.0 4.0 0.00 0.00 0.00 84 1018.6
20260505011813 49 128 3.0 4.0 0.00 0.00 0.00 84 1018.7
20260505011313 49 116 2.0 3.0 0.00 0.00 0.00 84 1018.7
20260505010813 49 116 2.0 3.0 0.00 0.00 0.00 84 1018.7
20260505010313 49 115 1.0 2.0 0.00 0.00 0.00 84 1018.7
20260505005813 49 115 1.0 2.0 0.00 0.00 0.00 84 1018.8
20260505005313 50 115 1.0 2.0 0.00 0.00 0.00 83 1018.7
20260505004813 50 115 2.0 2.0 0.00 0.00 0.00 83 1018.7
20260505004313 50 194 2.0 2.0 0.00 0.00 0.00 83 1018.7
20260505003813 51 165 1.0 2.0 0.00 0.00 0.00 83 1018.6
20260505003313 51 161 1.0 2.0 0.00 0.00 0.00 82 1018.6
20260505002813 51 161 2.0 4.0 0.00 0.00 0.00 83 1018.7
20260505002313 51 159 2.0 4.0 0.00 0.00 0.00 83 1018.8
20260505001813 51 159 1.0 2.0 0.00 0.00 0.00 83 1018.6
20260505001313 51 139 0.0 0.0 0.00 0.00 0.00 83 1018.7
20260505000813 51 139 1.0 1.0 0.00 0.00 0.00 83 1018.8
20260505000313 51 139 1.0 2.0 0.00 0.00 0.00 83 1018.8
20260504235813 51 139 1.0 2.0 0.00 0.00 0.00 82 1018.8
20260504235313 51 139 2.0 2.0 0.00 0.00 0.00 82 1018.8
20260504234813 51 139 2.0 3.0 0.00 0.00 0.00 82 1018.9
20260504234313 51 139 3.0 3.0 0.00 0.00 0.00 81 1018.9
20260504233813 51 139 2.0 3.0 0.00 0.00 0.00 80 1018.8
20260504233313 52 139 1.0 3.0 0.00 0.00 0.00 79 1018.9
20260504232813 52 294 1.0 2.0 0.00 0.00 0.00 78 1018.9
20260504232313 53 294 0.0 1.0 0.00 0.00 0.00 78 1019.0
20260504231813 53 294 2.0 2.0 0.00 0.00 0.00 79 1018.9
20260504231313 54 294 3.0 5.0 0.00 0.00 0.00 78 1019.0
20260504230813 54 292 3.0 4.0 0.00 0.00 0.00 78 1018.9
20260504230313 54 284 3.0 4.0 0.00 0.00 0.00 78 1019.0
20260504225813 54 299 3.0 3.0 0.00 0.00 0.00 77 1019.1
20260504225313 54 299 3.0 5.0 0.00 0.00 0.00 78 1019.0
20260504224813 53 300 2.0 4.0 0.00 0.00 0.00 78 1019.1
20260504224313 53 286 2.0 3.0 0.00 0.00 0.00 78 1019.2
20260504223813 53 285 2.0 4.0 0.00 0.00 0.00 78 1019.1
20260504223313 53 299 2.0 4.0 0.00 0.00 0.00 77 1019.2
20260504222813 54 302 3.0 4.0 0.00 0.00 0.00 77 1019.2
20260504222313 54 302 3.0 4.0 0.00 0.00 0.00 77 1019.1
20260504221813 54 290 4.0 6.0 0.00 0.00 0.00 77 1019.1
20260504221313 54 278 4.0 6.0 0.00 0.00 0.00 77 1019.1
20260504220813 54 275 4.0 4.0 0.00 0.00 0.00 77 1019.2
20260504220313 54 282 2.0 6.0 0.00 0.00 0.00 77 1019.1
20260504215813 53 302 0.0 1.0 0.00 0.00 0.00 77 1019.1
20260504215313 54 5 0.0 0.0 0.00 0.00 0.00 77 1019.0
20260504214813 54 5 0.0 0.0 0.00 0.00 0.00 76 1019.0
20260504214313 54 5 0.0 0.0 0.00 0.00 0.00 77 1018.9
20260504213813 54 5 0.0 0.0 0.00 0.00 0.00 77 1018.9
20260504213313 54 5 0.0 0.0 0.00 0.00 0.00 78 1018.9
20260504212813 54 5 0.0 0.0 0.00 0.00 0.00 79 1019.0
20260504212313 54 37 0.0 0.0 0.00 0.00 0.00 79 1019.0
20260504211813 54 62 0.0 0.0 0.00 0.00 0.00 79 1019.1
20260504211313 54 95 0.0 0.0 0.00 0.00 0.00 78 1019.1
20260504210813 54 95 0.0 0.0 0.00 0.00 0.00 78 1019.1
20260504210313 55 95 0.0 0.0 0.00 0.00 0.00 78 1019.1
20260504205813 55 95 0.0 0.0 0.00 0.00 0.00 78 1019.1
20260504205313 55 95 0.0 0.0 0.00 0.00 0.00 78 1019.1
20260504204813 55 95 0.0 0.0 0.00 0.00 0.00 77 1019.1
20260504204313 55 95 0.0 0.0 0.00 0.00 0.00 77 1019.1
20260504203813 55 95 0.0 0.0 0.00 0.00 0.00 76 1019.1
20260504203313 55 84 0.0 0.0 0.00 0.00 0.00 75 1019.0
20260504202813 56 56 0.0 0.0 0.00 0.00 0.00 76 1019.0
20260504202313 56 56 0.0 0.0 0.00 0.00 0.00 75 1018.9
20260504201813 56 56 0.0 0.0 0.00 0.00 0.00 75 1019.0
20260504201313 56 56 0.0 0.0 0.00 0.00 0.00 74 1018.9
20260504200813 56 56 0.0 0.0 0.00 0.00 0.00 74 1018.9
20260504200313 56 56 0.0 0.0 0.00 0.00 0.00 73 1018.9
20260504195813 56 57 0.0 0.0 0.00 0.00 0.00 74 1018.8
20260504195313 56 348 1.0 1.0 0.00 0.00 0.00 73 1018.8
20260504194813 57 347 2.0 3.0 0.00 0.00 0.00 74 1018.8
20260504194313 57 347 2.0 2.0 0.00 0.00 0.00 74 1018.7
20260504193813 57 347 2.0 2.0 0.00 0.00 0.00 73 1018.7
20260504193313 57 347 3.0 4.0 0.00 0.00 0.00 72 1018.6
20260504192813 58 344 3.0 4.0 0.00 0.00 0.00 73 1018.6
20260504192313 58 331 3.0 4.0 0.00 0.00 0.00 72 1018.6
20260504191813 58 325 2.0 4.0 0.00 0.00 0.00 71 1018.5
20260504191313 58 327 0.0 4.0 0.00 0.00 0.00 71 1018.5
20260504190813 58 62 0.0 0.0 0.00 0.00 0.00 71 1018.4
20260504190313 59 62 0.0 0.0 0.00 0.00 0.00 71 1018.3
20260504185813 59 121 0.0 0.0 0.00 0.00 0.00 70 1018.3
20260504185313 59 121 1.0 2.0 0.00 0.00 0.00 70 1018.1
20260504184813 59 121 2.0 3.0 0.00 0.00 0.00 70 1018.2
20260504184313 59 121 3.0 4.0 0.00 0.00 0.00 69 1018.0
20260504183813 60 121 3.0 6.0 0.00 0.00 0.00 69 1018.0
20260504183313 60 101 3.0 4.0 0.00 0.00 0.00 68 1018.0
20260504182813 60 104 4.0 6.0 0.00 0.00 0.00 68 1017.9
20260504182313 60 105 4.0 6.0 0.00 0.00 0.00 68 1017.8
20260504181813 60 108 4.0 7.0 0.00 0.00 0.00 67 1017.8
20260504181313 61 101 4.0 6.0 0.00 0.00 0.00 66 1017.7
20260504180813 61 109 5.0 8.0 0.00 0.00 0.00 65 1017.7
20260504180313 61 115 7.0 9.0 0.00 0.00 0.00 65 1017.6
20260504175813 61 109 7.0 10.0 0.00 0.00 0.00 65 1017.5
20260504175313 61 106 7.0 10.0 0.00 0.00 0.00 64 1017.5
20260504174813 62 113 7.0 9.0 0.00 0.00 0.00 64 1017.5
20260504174313 62 107 8.0 10.0 0.00 0.00 0.00 64 1017.5
20260504173813 62 105 8.0 11.0 0.00 0.00 0.00 63 1017.4
20260504173313 63 105 8.0 10.0 0.00 0.00 0.00 62 1017.4
20260504172813 63 98 8.0 9.0 0.00 0.00 0.00 61 1017.4
20260504172314 64 76 8.0 11.0 0.00 0.00 0.00 59 1017.4
20260504171813 65 103 7.0 10.0 0.00 0.00 0.00 58 1017.3
20260504171313 66 89 6.0 9.0 0.00 0.00 0.00 55 1017.3
20260504170813 67 90 5.0 8.0 0.00 0.00 0.00 52 1017.4
20260504170314 67 90 4.0 7.0 0.00 0.00 0.00 48 1017.4
20260504160314 70 221 4.0 8.0 0.00 0.00 0.00 43 1017.0
20260504150814 70 225 8.0 13.0 0.00 0.00 0.00 41 1017.0
20260504150314 70 196 9.0 13.0 0.00 0.00 0.00 40 1016.9
20260504141314 71 236 8.0 15.0 0.00 0.00 0.00 38 1016.9
20260504140814 71 238 9.0 12.0 0.00 0.00 0.00 39 1016.8
20260504140314 71 247 10.0 13.0 0.00 0.00 0.00 40 1016.8
20260504130814 71 304 10.0 14.0 0.00 0.00 0.00 40 1017.1
20260504130314 71 267 10.0 14.0 0.00 0.00 0.00 40 1017.3
20260504120314 71 291 9.0 14.0 0.00 0.00 0.00 30 1017.7
20260504110314 70 218 6.0 7.0 0.00 0.00 0.00 35 1018.7
20260504100314 69 323 3.0 8.0 0.00 0.00 0.00 35 1019.4
20260504081814 67 49 2.0 4.0 0.00 0.00 0.00 34 1019.9
20260504081315 67 35 2.0 4.0 0.00 0.00 0.00 35 1020.0
20260504080814 66 39 2.0 3.0 0.00 0.00 0.00 35 1019.9
20260504080314 66 286 2.0 4.0 0.00 0.00 0.00 36 1019.9
20260504070315 65 140 1.0 3.0 0.00 0.00 0.00 35 1020.1